TimeMST,TemperatureF,Dew PointF,Humidity,Sea Level PressureIn,VisibilityMPH,Wind Direction,Wind SpeedMPH,Gust SpeedMPH,PrecipitationIn,Events,Conditions,WindDirDegrees,DateUTC
1:53 AM,10.9,7.0,84,30.23,10.0,WSW,10.4,-,N/A,,Clear,240,2013-02-19 08:53:00
2:53 AM,9.0,5.0,84,30.24,10.0,West,5.8,-,N/A,,Clear,260,2013-02-19 09:53:00
3:53 AM,6.1,1.9,83,30.24,10.0,WNW,4.6,-,N/A,,Clear,290,2013-02-19 10:53:00
4:53 AM,5.0,1.0,84,30.25,10.0,WNW,3.5,-,N/A,,Clear,300,2013-02-19 11:53:00
5:53 AM,3.0,-0.9,84,30.26,10.0,West,3.5,-,N/A,,Clear,260,2013-02-19 12:53:00
6:39 AM,6.8,3.2,85,30.08,10.0,Calm,Calm,-,N/A,,Scattered Clouds,0,2013-02-19 13:39:00
6:48 AM,5.0,1.4,85,30.09,10.0,SW,3.5,-,N/A,,Mostly Cloudy,230,2013-02-19 13:48:00
6:53 AM,7.0,3.0,84,30.27,10.0,Calm,Calm,-,N/A,,Mostly Cloudy,0,2013-02-19 13:53:00
7:20 AM,10.4,6.8,85,30.09,10.0,Calm,Calm,-,N/A,,Scattered Clouds,0,2013-02-19 14:20:00
7:53 AM,18.0,15.1,88,30.26,10.0,Calm,Calm,-,N/A,,Clear,0,2013-02-19 14:53:00
8:53 AM,25.0,18.0,75,30.25,10.0,SSE,10.4,-,N/A,,Clear,150,2013-02-19 15:53:00
9:53 AM,27.0,16.0,63,30.22,10.0,SSE,15.0,-,N/A,,Clear,150,2013-02-19 16:53:00
11:53 AM,36.0,17.1,46,30.15,10.0,SSE,19.6,25.3,N/A,,Clear,150,2013-02-19 18:53:00
12:53 PM,37.0,17.1,44,30.12,10.0,SSE,19.6,25.3,N/A,,Clear,150,2013-02-19 19:53:00
1:53 PM,39.0,17.1,41,30.09,10.0,SSE,19.6,31.1,N/A,,Clear,150,2013-02-19 20:53:00
2:53 PM,41.0,17.1,38,30.07,10.0,SSE,18.4,29.9,N/A,,Clear,150,2013-02-19 21:53:00
3:53 PM,39.9,16.0,38,30.07,10.0,SSE,23.0,33.4,N/A,,Clear,150,2013-02-19 22:53:00
5:53 PM,30.9,15.1,52,30.11,10.0,SE,13.8,-,N/A,,Clear,140,2013-02-20 00:53:00
6:53 PM,28.9,15.1,56,30.11,10.0,SE,17.3,-,N/A,,Clear,140,2013-02-20 01:53:00
7:53 PM,28.0,15.1,58,30.07,10.0,SE,18.4,-,N/A,,Clear,140,2013-02-20 02:53:00
8:53 PM,26.1,14.0,60,30.07,10.0,SE,17.3,-,N/A,,Clear,140,2013-02-20 03:53:00
9:53 PM,24.1,14.0,65,30.06,10.0,SE,16.1,-,N/A,,Clear,130,2013-02-20 04:53:00
10:53 PM,21.0,12.0,68,30.04,10.0,SE,20.7,25.3,N/A,,Clear,130,2013-02-20 05:53:00
11:53 PM,19.9,12.0,71,30.01,10.0,SE,24.2,32.2,N/A,,Clear,140,2013-02-20 06:53:00